Regional Weather Roundup
Issued by NWS Newport/Morehead, NC

Current Version | Previous Version | Text Only | Print | Product List | Glossary Off
Versions: 1 2 3 4 5 6 7 8 9 10 11 12 13 14 15 16 17 18 19 20 21 22 23 24 25 26 27 28 29 30 31 32 33 34 35 36 37 38 39 40 41 42 43 44 45 46 47 48 49 50
000 ASUS42 KMHX 030525 RWRMHX WEATHER ROUNDUP FOR EASTERN NORTH CAROLINA NATIONAL WEATHER SERVICE NEWPORT/MOREHEAD CITY NC 100 AM EDT TUE MAY 03 2016 NOTE: "FAIR" INDICATES FEW OR NO CLOUDS BELOW 12,000 FEET WITH NO SIGNIFICANT WEATHER AND/OR OBSTRUCTIONS TO VISIBILITY NCZ015>017-031-032-045>047-102-103-030600- NORTH COAST CITY SKY/WX TMP DP RH WIND PRES REMARKS EDENTON CLOUDY 70 69 98 S7 29.88F ELIZABETH CITY MOCLDY 71 66 84 S12 29.88F KITTY HAWK CLOUDY 72 68 87 SW8G18 29.88F MANTEO NOT AVBL $$ NCZ045>047-081-094-103-104-030600- CENTRAL COAST CITY SKY/WX TMP DP RH WIND PRES REMARKS FRISCO CLOUDY 71 69 93 SW10 29.95F SWANQUARTER NOT AVBL $$ NCZ095-097-098-100-101-030600- SOUTHERN COAST CITY SKY/WX TMP DP RH WIND PRES REMARKS BEAUFORT MOCLDY 72 69 90 SW15 29.95F CEDAR ISLAND NOT AVBL JACKSONVILLE MOCLDY 70 68 93 S7 29.93F PINEY ISLAND NOT AVBL WILMINGTON CLOUDY 73 68 84 S9 29.95F $$ NCZ011>013-027>030-043-044-078>080-089-090>093-098-030600- COASTAL PLAIN CITY SKY/WX TMP DP RH WIND PRES REMARKS AHOSKIE CLOUDY 66 62 87 S6 29.87F CLINTON PTCLDY 67 66 97 S5 29.91F ELIZABETHTOWN PTCLDY 70 70 100 S7 29.91F GOLDSBORO NOT AVBL GREENVILLE CLOUDY 68 64 88 SW7 29.91S HAVELOCK CLOUDY 72 68 87 SW7 29.95F KENANSVILLE CLOUDY 66 65 97 CALM 29.92F KINSTON CLOUDY 67 65 91 S8 29.91F NEW BERN CLOUDY 70 68 93 S8 29.94F RICHLANDS CLOUDY 69 68 96 S7 29.93F ROCKY MOUNT MOCLDY 67 64 90 S7 29.88F WASHINGTON CLOUDY 69 66 92 S8 29.89F WHITEVILLE MOCLDY 72 69 89 S9 29.92F $$ AMZ130-135-150-152-154-156-158-170-250-252-270-ANZ085-086-088-633-658-670-030600- MARINE OBSERVATIONS STATION/POSITION TIME TEMP WIND PRES WAVE SWELL AIR SEA DIR/SP/G HT/PER HT/PER (UTC) (F) (DEG/KT/KT) (MB) (FT/S) (FT/S) CHESAPEAKE LIGHT 0500 65 190/ 14/ 15 1011.6 64 E VA BEACH 0450 60 54 190/ 14/ 16 1011.8 4/10 2/10 DUCK 0500 72 67 200/ 13/ 18 1011.5 2 E DUCK 0411 58 N/A 3/11 2/11 OREGON INLET 0500 71 72 190/ 18/ 20 1012.4 13E OREGON INLT 0500 61 N/A 4/ 5 2/11 HATTERAS CG 0500 72 70 210/ 11/ 14 1013.6 DIAMOND BUOY 0450 74 74 220/ 16/ 19 1014.2 4/10 2/10 CAPE LOOKOUT 0500 71 200/ 10/ 13 1013.9 BEAUFORT LAB 0500 72 69 210/ 11/ 16 1013.3 30 SE NEW RVR IN 0425 70 N/A 3/ 5 2/11 27 SE WRIGHTSVLE 0508 74 71 210/ 17/ 23 1014.0 5 SE WRIGHTSVLE 0408 71 70 220/ 10/ 14 1015.6 225 S CAPE HAT 0450 74 74 160/ 16/ 19 1018.3 4/10 3/10 41 SE CHARLESTON 0450 76 75 200/ 10/ 12 1014.4 3/ 6 2/ 6 $$

USA.gov is the U.S. government's official web portal to all federal, state and local government web resources and services.